Regional Weather Roundup
Issued by NWS State College, PA

Home | Current Version | Previous Version | Graphics & Text | Print | Product List | Glossary On
Versions: 1 2 3 4 5 6 7 8 9 10 11 12 13 14 15 16 17 18 19 20 21 22 23 24 25 26 27 28 29 30 31 32 33 34 35 36 37 38 39 40 41 42 43 44 45 46 47 48 49 50
000
ASUS41 KCTP 210810
RWRCTP
PHLRWRCTP ALL

REGIONAL WEATHER ROUNDUP
NATIONAL WEATHER SERVICE STATE COLLEGE PA
300 AM EST SUN JAN 21 2018

Note: "fair" indicates few or no clouds below 12,000 feet with no
significant weather and/or obstructions to visibility.

* = STATION THAT DOES NOT REPORT PRECIPITATION /E.G. RAIN...SNOW...ETC/
    THUNDER OR FOG.

PAZ002>004-007>009-013>016-020>023-029>032-210900-
WESTERN PENNSYLVANIA

CITY           SKY/WX    TMP DP  RH WIND       PRES   REMARKS
ERIE           CLOUDY    38  31  76 S7        30.10R
MEADVILLE      CLOUDY    36  33  89 S5        30.09R
FRANKLIN*      CLOUDY    37  32  81 SW3       30.10R
NEW CASTLE     CLOUDY    37  32  82 CALM      30.12R
BEAVER COUNTY  NOT AVBL
BUTLER*        CLOUDY    37  31  78 CALM      30.11S
PITTSBURGH INT CLOUDY    43  35  73 SW7       30.11R
PITTSBURGH     CLOUDY    40  32  73 S9        30.11R
INDIANA*       CLOUDY    37  34  87 CALM      30.14S
LATROBE        CLOUDY    39  36  87 SW9       30.13S
WASHINGTON CO* CLOUDY    42  38  85 SW6       30.15S
$$

PAZ004>006-010>012-017>019-024>028-033>037-041-042-045-046-049>053-210900-
CENTRAL PENNSYLVANIA

CITY           SKY/WX    TMP DP  RH WIND       PRES   REMARKS
BRADFORD       CLOUDY    35  31  85 CALM      30.06R
DUBOIS           N/A    N/A N/A N/A MISG      30.08R
CLEARFIELD     CLOUDY    39  34  82 SW5       30.10R
JOHNSTOWN      CLOUDY    40  35  83 W10       30.07F
ALTOONA        CLOUDY    44  37  76 W8        30.10S
STATE COLLEGE  CLOUDY    40  32  75 W7        30.10S
WILLIAMSPORT   FAIR      26  24  92 CALM      30.11R
SELINSGROVE    CLOUDY    25  23  92 CALM      30.13R
FT INDIANTOWN  FAIR      30  30 100 CALM      30.11R
CAPITAL CITY   FAIR      29  26  89 CALM      30.13R
HARRISBURG     FAIR      26  24  92 CALM      30.12R
YORK           FAIR      27  26  96 CALM      30.12R
$$

PAZ038>040-043-044-047-048-054-055-060>062-067>071-210900-
EASTERN PENNSYLVANIA

CITY           SKY/WX    TMP DP  RH WIND       PRES   REMARKS
SCRANTON       FAIR      33  26  75 W3        30.07S
MOUNT POCONO   FAIR      34  27  75 W14       30.02R
ALLENTOWN      FAIR      35  27  72 SW5       30.09R
QUAKERTOWN*    FAIR      36  28  75 MISG      30.10R
READING        FAIR      31  28  89 CALM      30.10R
LANCASTER      FAIR      31  29  92 CALM      30.11R
COATESVILLE    FAIR      41  32  70 CALM      30.11S
POTTSTOWN      FAIR      32  26  78 CALM      30.12R
BLUE BELL      FAIR      30  28  93 CALM      30.12R
DOYLESTOWN     FAIR      38  28  67 SW6       30.09R
WILLOW GROVE   NOT AVBL
NORTH PHILA    FAIR      36  28  73 SW3       30.12R
PHILADELPHIA   FAIR      32  27  81 S5        30.13R
$$



USA.gov is the U.S. government's official web portal to all federal, state and local government web resources and services.